This is the latest recevied weather packets stored in our database for station/object N4AN. If no packets are shown the sender has not sent any weather packets the latest 1 day(s).
| Time | Temp. | Humidity | Pressure | Rain* | Wind** | Luminosity | Snow |
|---|---|---|---|---|---|---|---|
| 1777999267 | 27.22° C | 81% | 1009.7 hPa | 0 mm | 2.24 m/s, 89° | - | - |
| 1777998966 | 26.67° C | 81% | 1009.7 hPa | 0 mm | 6.26 m/s, 89° | - | - |
| 1777998666 | 27.22° C | 81% | 1009.9 hPa | 0 mm | 2.68 m/s, 86° | - | - |
| 1777998366 | 27.22° C | 81% | 1009.8 hPa | 0 mm | 2.68 m/s, 89° | - | - |
| 1777998065 | 26.67° C | 81% | 1009.8 hPa | 0 mm | 2.24 m/s, 95° | - | - |
| 1777997764 | 27.22° C | 81% | 1009.9 hPa | 0 mm | 5.36 m/s, 107° | - | - |
| 1777997464 | 27.22° C | 81% | 1009.8 hPa | 0 mm | 7.15 m/s, 95° | - | - |
| 1777997159 | 26.67° C | 81% | 1009.9 hPa | 0 mm | 4.47 m/s, 89° | - | - |
| 1777996859 | 26.67° C | 80% | 1009.9 hPa | 0 mm | 7.15 m/s, 94° | - | - |
| 1777996559 | 26.67° C | 81% | 1009.8 hPa | 0 mm | 1.34 m/s, 79° | - | - |
| 1777996255 | 26.67° C | 80% | 1009.8 hPa | 0 mm | 2.24 m/s, 88° | - | - |
| 1777995952 | 26.67° C | 81% | 1009.8 hPa | 0 mm | 4.02 m/s, 83° | - | - |
| 1777995652 | 26.67° C | 81% | 1009.7 hPa | 0 mm | 0.45 m/s, 89° | - | - |
| 1777995346 | 26.67° C | 81% | 1009.6 hPa | 0 mm | 1.34 m/s, 86° | - | - |
| 1777995046 | 26.67° C | 82% | 1009.7 hPa | 0 mm | 2.68 m/s, 88° | - | - |
| 1777994746 | 26.67° C | 81% | 1009.7 hPa | 0 mm | 4.47 m/s, 86° | - | - |
| 1777994445 | 26.67° C | 81% | 1009.7 hPa | 0 mm | 4.02 m/s, 103° | - | - |
| 1777994144 | 26.67° C | 82% | 1009.7 hPa | 0 mm | 4.92 m/s, 103° | - | - |
| 1777993844 | 26.11° C | 82% | 1009.8 hPa | 0 mm | 2.68 m/s, 108° | - | - |
| 1777993544 | 26.11° C | 82% | 1009.7 hPa | 0 mm | 5.81 m/s, 108° | - | - |
| 1777993243 | 26.11° C | 82% | 1009.8 hPa | 0 mm | 5.81 m/s, 86° | - | - |
| 1777992943 | 26.11° C | 82% | 1009.8 hPa | 0 mm | 5.81 m/s, 79° | - | - |
| 1777992643 | 26.11° C | 82% | 1009.8 hPa | 0 mm | 4.02 m/s, 81° | - | - |
| 1777992340 | 26.11° C | 83% | 1009.8 hPa | 0 mm | 3.13 m/s, 89° | - | - |
| 1777992040 | 26.11° C | 82% | 1009.9 hPa | 0 mm | 5.81 m/s, 83° | - | - |
* Rain latest hour (hover to see other rain measurements)
** Current wind speed in m/s (hover to see current wind gust speed)